Location: Unspecified
(0.0000°N, 0.0000°E)
Time: 12:30:06
(UTC+00:00)

Envisat - Pass Details

Date: 10 December 2019
Orbit: 764 x 766 km, 98.1° (Epoch: 11 December)

Event Time Altitude Azimuth Distance (km) Brightness Sun altitude
Rises 19:02:52 0° 188° (S) 3,230 6.7 -16.1°
Reaches altitude 10° 19:05:27 10° 199° (SSW) 2,302 6.1 -16.7°
Maximum altitude 19:09:46 29° 258° (WSW) 1,386 5.1 -17.7°
Drops below altitude 10° 19:14:05 10° 317° (NW) 2,292 5.7 -18.6°
Sets 19:16:39 0° 328° (NNW) 3,215 6.3 -19.2°
